TimePST,TemperatureF,Dew PointF,Humidity,Sea Level PressureIn,VisibilityMPH,Wind Direction,Wind SpeedMPH,Gust SpeedMPH,PrecipitationIn,Events,Conditions,WindDirDegrees,DateUTC
12:53 AM,44.1,37.0,76,30.14,10.0,Calm,Calm,-,N/A,,Partly Cloudy,0,2013-01-08 08:53:00
1:53 AM,42.1,37.0,82,30.14,10.0,Calm,Calm,-,N/A,,Scattered Clouds,0,2013-01-08 09:53:00
2:53 AM,41.0,37.9,89,30.15,10.0,Calm,Calm,-,N/A,,Mostly Cloudy,0,2013-01-08 10:53:00
3:53 AM,41.0,37.9,89,30.13,10.0,Calm,Calm,-,N/A,,Overcast,0,2013-01-08 11:53:00
4:53 AM,42.1,39.0,89,30.12,10.0,Calm,Calm,-,N/A,,Overcast,0,2013-01-08 12:53:00
5:38 AM,42.8,39.2,87,30.09,10.0,Calm,Calm,-,N/A,,Overcast,0,2013-01-08 13:38:00
5:53 AM,44.1,39.9,85,30.09,10.0,South,5.8,-,0.00,Rain,Light Rain,180,2013-01-08 13:53:00
7:02 AM,42.8,39.2,87,30.05,10.0,ENE,4.6,-,0.00,Rain,Light Rain,60,2013-01-08 15:02:00
7:43 AM,42.8,41.0,93,30.04,9.0,East,9.2,-,0.00,Rain,Light Rain,100,2013-01-08 15:43:00
7:53 AM,43.0,41.0,93,30.04,8.0,East,9.2,-,0.00,Rain,Light Rain,100,2013-01-08 15:53:00
8:05 AM,42.8,41.0,93,30.03,7.0,East,8.1,-,0.01,Rain,Light Rain,90,2013-01-08 16:05:00
8:53 AM,42.1,39.0,89,30.02,8.0,ESE,11.5,-,0.02,Rain,Light Rain,110,2013-01-08 16:53:00
9:12 AM,42.8,39.2,87,30.00,8.0,East,9.2,-,0.00,Rain,Light Rain,100,2013-01-08 17:12:00
9:53 AM,41.0,37.9,89,29.98,10.0,ESE,13.8,18.4,0.00,Rain,Light Rain,110,2013-01-08 17:53:00
10:20 AM,41.0,39.2,93,29.96,6.0,East,11.5,-,0.00,Rain,Light Rain,100,2013-01-08 18:20:00
10:41 AM,41.0,37.4,87,29.95,7.0,East,15.0,24.2,0.01,Rain,Light Rain,100,2013-01-08 18:41:00
10:53 AM,39.9,37.9,93,29.95,8.0,East,15.0,-,0.01,Rain,Light Rain,100,2013-01-08 18:53:00
11:53 AM,41.0,39.0,93,29.91,8.0,East,9.2,-,0.02,Rain,Light Rain,90,2013-01-08 19:53:00
12:53 PM,41.0,39.0,93,29.85,5.0,East,10.4,-,0.08,Rain,Light Rain,90,2013-01-08 20:53:00
1:16 PM,42.8,39.2,87,29.85,4.0,East,9.2,-,0.05,Rain,Rain,90,2013-01-08 21:16:00
1:53 PM,43.0,41.0,93,29.81,10.0,East,11.5,-,0.06,Rain,Light Rain,90,2013-01-08 21:53:00
2:53 PM,44.1,43.0,96,29.77,10.0,ESE,13.8,-,0.00,Rain,Light Rain,120,2013-01-08 22:53:00
3:53 PM,46.0,44.1,93,29.72,10.0,ESE,11.5,18.4,0.00,,Overcast,120,2013-01-08 23:53:00
4:53 PM,46.9,45.0,93,29.70,10.0,ENE,3.5,-,0.01,Rain,Light Rain,70,2013-01-09 00:53:00
5:05 PM,46.4,44.6,93,29.70,7.0,East,3.5,-,0.00,Rain,Light Rain,80,2013-01-09 01:05:00
5:30 PM,46.4,44.6,93,29.68,10.0,East,4.6,-,0.01,Rain,Light Rain,90,2013-01-09 01:30:00
5:53 PM,46.9,45.0,93,29.67,10.0,NE,3.5,-,0.01,Rain,Light Rain,40,2013-01-09 01:53:00
6:53 PM,46.9,46.0,97,29.66,10.0,Calm,Calm,-,0.00,Rain,Light Rain,0,2013-01-09 02:53:00
7:53 PM,46.9,45.0,93,29.66,10.0,South,3.5,-,0.00,Rain,Light Rain,190,2013-01-09 03:53:00
9:53 PM,48.0,46.0,93,29.66,8.0,South,5.8,-,0.04,Rain,Light Rain,180,2013-01-09 05:53:00
10:53 PM,48.0,46.9,96,29.68,2.0,Calm,Calm,-,0.12,Rain,Heavy Rain,0,2013-01-09 06:53:00
11:00 PM,48.2,46.4,93,29.68,3.0,Variable,3.5,-,0.02,Rain,Rain,0,2013-01-09 07:00:00
11:07 PM,48.2,46.4,93,29.68,4.0,SW,9.2,-,0.04,Rain,Rain,220,2013-01-09 07:07:00
11:53 PM,46.0,43.0,89,29.70,9.0,SW,8.1,-,0.11,Rain,Light Rain,220,2013-01-09 07:53:00